Time,TemperatureF,DewpointF,PressureIn,WindDirection,WindDirectionDegrees,WindSpeedMPH,WindSpeedGustMPH,Humidity,HourlyPrecipIn,Conditions,Clouds,dailyrainin,SoftwareType,DateUTC
2013-10-09 00:04:00,72.5,60.9,30.03,East,84,1.0,2.0,67,0.00,,,0.00,Wunderground v.1.15,2013-10-09 05:04:00,
2013-10-09 00:09:00,72.5,60.5,30.02,East,86,2.0,2.0,66,0.00,,,0.00,Wunderground v.1.15,2013-10-09 05:09:00,
2013-10-09 00:15:00,72.5,60.9,30.02,ENE,76,1.0,2.0,67,0.00,,,0.00,Wunderground v.1.15,2013-10-09 05:15:00,
2013-10-09 00:21:00,72.4,60.8,30.02,East,82,1.0,2.0,67,0.00,,,0.00,Wunderground v.1.15,2013-10-09 05:21:00,
2013-10-09 00:27:00,72.4,61.2,30.02,ENE,72,2.0,3.0,68,0.00,,,0.00,Wunderground v.1.15,2013-10-09 05:27:00,
2013-10-09 00:33:00,72.4,61.2,30.02,East,97,2.0,3.0,68,0.00,,,0.00,Wunderground v.1.15,2013-10-09 05:33:00,
2013-10-09 00:39:00,72.3,61.1,30.02,East,86,2.0,3.0,68,0.00,,,0.00,Wunderground v.1.15,2013-10-09 05:39:00,
2013-10-09 00:45:00,72.5,61.3,30.02,East,93,2.0,5.0,68,0.00,,,0.00,Wunderground v.1.15,2013-10-09 05:45:00,
2013-10-09 00:50:00,72.5,61.3,30.02,ENE,77,3.0,3.0,68,0.00,,,0.00,Wunderground v.1.15,2013-10-09 05:50:00,
2013-10-09 00:56:00,72.4,61.7,30.02,East,89,2.0,3.0,69,0.00,,,0.00,Wunderground v.1.15,2013-10-09 05:56:00,
2013-10-09 01:01:00,72.4,62.1,30.02,ENE,70,2.0,3.0,70,0.00,,,0.00,Wunderground v.1.15,2013-10-09 06:01:00,
2013-10-09 01:07:00,72.4,62.1,30.02,East,84,2.0,6.0,70,0.00,,,0.00,Wunderground v.1.15,2013-10-09 06:07:00,
2013-10-09 01:13:00,72.5,61.3,30.02,East,85,2.0,4.0,68,0.00,,,0.00,Wunderground v.1.15,2013-10-09 06:13:00,
2013-10-09 01:19:00,72.6,61.4,30.02,East,82,3.0,4.0,68,0.00,,,0.00,Wunderground v.1.15,2013-10-09 06:19:00,
2013-10-09 01:25:00,72.6,61.4,30.02,East,79,3.0,7.0,68,0.00,,,0.00,Wunderground v.1.15,2013-10-09 06:25:00,
2013-10-09 01:30:00,72.7,61.5,30.02,East,82,3.0,5.0,68,0.00,,,0.00,Wunderground v.1.15,2013-10-09 06:30:00,
2013-10-09 01:36:00,72.6,61.4,30.02,East,79,3.0,5.0,68,0.00,,,0.00,Wunderground v.1.15,2013-10-09 06:36:00,
2013-10-09 01:41:00,72.5,61.7,30.02,East,87,2.0,5.0,69,0.00,,,0.00,Wunderground v.1.15,2013-10-09 06:41:00,
2013-10-09 01:47:00,72.6,61.8,30.02,East,79,3.0,5.0,69,0.00,,,0.00,Wunderground v.1.15,2013-10-09 06:47:00,
2013-10-09 01:53:00,72.6,61.8,30.02,East,82,3.0,4.0,69,0.00,,,0.00,Wunderground v.1.15,2013-10-09 06:53:00,
2013-10-09 01:59:00,72.4,61.2,30.02,East,84,3.0,4.0,68,0.00,,,0.00,Wunderground v.1.15,2013-10-09 06:59:00,
2013-10-09 02:05:00,72.4,61.2,30.02,East,91,2.0,3.0,68,0.00,,,0.00,Wunderground v.1.15,2013-10-09 07:05:00,
2013-10-09 02:11:00,72.4,61.7,30.02,East,87,2.0,3.0,69,0.00,,,0.00,Wunderground v.1.15,2013-10-09 07:11:00,
2013-10-09 02:16:00,72.3,61.6,30.02,ENE,65,2.0,3.0,69,0.00,,,0.00,Wunderground v.1.15,2013-10-09 07:16:00,
2013-10-09 02:22:00,72.3,61.6,30.02,ENE,71,2.0,3.0,69,0.00,,,0.00,Wunderground v.1.15,2013-10-09 07:22:00,
2013-10-09 02:28:00,72.3,61.6,30.02,ESE,107,2.0,4.0,69,0.00,,,0.00,Wunderground v.1.15,2013-10-09 07:28:00,
2013-10-09 02:34:00,72.3,61.6,30.02,East,91,2.0,4.0,69,0.00,,,0.00,Wunderground v.1.15,2013-10-09 07:34:00,
2013-10-09 02:40:00,72.4,61.7,30.02,ENE,59,3.0,4.0,69,0.00,,,0.00,Wunderground v.1.15,2013-10-09 07:40:00,
2013-10-09 02:46:00,72.2,61.5,30.02,ENE,65,3.0,4.0,69,0.00,,,0.00,Wunderground v.1.15,2013-10-09 07:46:00,
2013-10-09 02:52:00,72.4,61.7,30.02,ENE,58,3.0,4.0,69,0.00,,,0.00,Wunderground v.1.15,2013-10-09 07:52:00,
2013-10-09 02:57:00,72.4,62.1,30.02,East,100,4.0,5.0,70,0.00,,,0.00,Wunderground v.1.15,2013-10-09 07:57:00,
2013-10-09 03:03:00,72.4,62.1,30.02,East,89,3.0,5.0,70,0.00,,,0.00,Wunderground v.1.15,2013-10-09 08:03:00,
2013-10-09 03:09:00,72.1,61.8,30.02,East,82,3.0,5.0,70,0.00,,,0.00,Wunderground v.1.15,2013-10-09 08:09:00,
2013-10-09 03:15:00,72.2,61.9,30.02,East,93,3.0,4.0,70,0.00,,,0.00,Wunderground v.1.15,2013-10-09 08:15:00,
2013-10-09 03:21:00,72.3,61.6,30.01,East,82,3.0,3.0,69,0.00,,,0.00,Wunderground v.1.15,2013-10-09 08:21:00,
2013-10-09 03:27:00,72.3,62.0,30.01,East,89,2.0,3.0,70,0.00,,,0.00,Wunderground v.1.15,2013-10-09 08:27:00,
2013-10-09 03:32:00,72.2,61.9,30.01,ENE,62,2.0,3.0,70,0.00,,,0.00,Wunderground v.1.15,2013-10-09 08:32:00,
2013-10-09 03:38:00,72.1,61.8,30.02,ENE,66,3.0,4.0,70,0.00,,,0.00,Wunderground v.1.15,2013-10-09 08:38:00,
2013-10-09 03:44:00,72.1,61.8,30.02,East,91,3.0,5.0,70,0.00,,,0.00,Wunderground v.1.15,2013-10-09 08:44:00,
2013-10-09 03:50:00,72.1,62.2,30.01,SE,138,2.0,2.0,71,0.00,,,0.00,Wunderground v.1.15,2013-10-09 08:50:00,
2013-10-09 03:56:00,72.1,62.2,30.01,East,96,1.0,4.0,71,0.00,,,0.00,Wunderground v.1.15,2013-10-09 08:56:00,
2013-10-09 04:01:00,72.1,62.6,30.01,SSE,156,1.0,2.0,72,0.00,,,0.00,Wunderground v.1.15,2013-10-09 09:01:00,
2013-10-09 04:07:00,71.9,61.6,30.01,East,82,1.0,3.0,70,0.00,,,0.00,Wunderground v.1.15,2013-10-09 09:07:00,
2013-10-09 04:13:00,71.9,62.0,30.01,ENE,74,3.0,3.0,71,0.00,,,0.00,Wunderground v.1.15,2013-10-09 09:13:00,
2013-10-09 04:19:00,72.1,62.6,30.01,ENE,71,3.0,4.0,72,0.00,,,0.00,Wunderground v.1.15,2013-10-09 09:19:00,
2013-10-09 04:24:00,72.0,61.7,30.01,East,89,3.0,4.0,70,0.00,,,0.00,Wunderground v.1.15,2013-10-09 09:24:00,
2013-10-09 04:30:00,72.0,62.1,30.01,ESE,108,2.0,2.0,71,0.00,,,0.00,Wunderground v.1.15,2013-10-09 09:30:00,
2013-10-09 04:36:00,72.0,62.1,30.01,East,94,1.0,4.0,71,0.00,,,0.00,Wunderground v.1.15,2013-10-09 09:36:00,
2013-10-09 04:42:00,72.0,62.5,30.01,ESE,123,2.0,3.0,72,0.00,,,0.00,Wunderground v.1.15,2013-10-09 09:42:00,
2013-10-09 04:48:00,72.0,62.5,30.01,East,79,2.0,3.0,72,0.00,,,0.00,Wunderground v.1.15,2013-10-09 09:48:00,
2013-10-09 04:54:00,72.0,62.1,30.02,SSE,148,2.0,5.0,71,0.00,,,0.00,Wunderground v.1.15,2013-10-09 09:54:00,
2013-10-09 04:59:00,72.0,62.1,30.01,ESE,113,2.0,5.0,71,0.00,,,0.00,Wunderground v.1.15,2013-10-09 09:59:00,
2013-10-09 05:05:00,72.1,62.6,30.01,East,82,1.0,3.0,72,0.00,,,0.00,Wunderground v.1.15,2013-10-09 10:05:00,
2013-10-09 05:10:00,72.1,62.6,30.02,ESE,104,1.0,5.0,72,0.00,,,0.00,Wunderground v.1.15,2013-10-09 10:10:00,
2013-10-09 05:16:00,72.2,62.7,30.02,SE,124,3.0,6.0,72,0.00,,,0.00,Wunderground v.1.15,2013-10-09 10:16:00,
2013-10-09 05:21:00,72.2,62.7,30.02,ESE,105,3.0,3.0,72,0.00,,,0.00,Wunderground v.1.15,2013-10-09 10:21:00,
2013-10-09 05:27:00,72.2,62.7,30.02,SE,131,2.0,3.0,72,0.00,,,0.00,Wunderground v.1.15,2013-10-09 10:27:00,
2013-10-09 05:33:00,72.3,62.4,30.02,East,93,1.0,3.0,71,0.00,,,0.00,Wunderground v.1.15,2013-10-09 10:33:00,
2013-10-09 05:39:00,72.3,62.8,30.02,SE,141,1.0,4.0,72,0.00,,,0.00,Wunderground v.1.15,2013-10-09 10:39:00,
2013-10-09 05:44:00,72.2,62.3,30.02,ESE,120,1.0,3.0,71,0.00,,,0.00,Wunderground v.1.15,2013-10-09 10:44:00,
2013-10-09 05:50:00,72.2,62.7,30.02,ESE,123,0.0,3.0,72,0.00,,,0.00,Wunderground v.1.15,2013-10-09 10:50:00,
2013-10-09 05:55:00,72.2,62.7,30.02,East,84,0.0,3.0,72,0.00,,,0.00,Wunderground v.1.15,2013-10-09 10:55:00,
2013-10-09 06:01:00,72.1,63.0,30.02,ESE,121,0.0,3.0,73,0.00,,,0.00,Wunderground v.1.15,2013-10-09 11:01:00,
2013-10-09 06:07:00,72.2,63.1,30.02,East,85,1.0,3.0,73,0.00,,,0.00,Wunderground v.1.15,2013-10-09 11:07:00,
2013-10-09 06:12:00,72.1,63.4,30.02,ESE,107,1.0,3.0,74,0.00,,,0.00,Wunderground v.1.15,2013-10-09 11:12:00,
2013-10-09 06:18:00,72.2,63.1,30.02,ENE,77,1.0,3.0,73,0.00,,,0.00,Wunderground v.1.15,2013-10-09 11:18:00,
2013-10-09 06:24:00,72.2,62.7,30.02,SE,139,1.0,3.0,72,0.00,,,0.00,Wunderground v.1.15,2013-10-09 11:24:00,
2013-10-09 06:30:00,72.2,63.1,30.03,East,89,1.0,3.0,73,0.00,,,0.00,Wunderground v.1.15,2013-10-09 11:30:00,
2013-10-09 06:36:00,72.3,63.2,30.03,East,88,2.0,3.0,73,0.00,,,0.00,Wunderground v.1.15,2013-10-09 11:36:00,
2013-10-09 06:42:00,72.3,63.5,30.02,ENE,66,1.0,3.0,74,0.00,,,0.00,Wunderground v.1.15,2013-10-09 11:42:00,
2013-10-09 06:47:00,72.0,63.3,30.03,East,91,0.0,3.0,74,0.00,,,0.00,Wunderground v.1.15,2013-10-09 11:47:00,
2013-10-09 06:53:00,71.9,63.5,30.03,ENE,76,0.0,3.0,75,0.00,,,0.00,Wunderground v.1.15,2013-10-09 11:53:00,
2013-10-09 06:59:00,71.9,63.2,30.03,East,90,0.0,3.0,74,0.00,,,0.00,Wunderground v.1.15,2013-10-09 11:59:00,
2013-10-09 07:04:00,71.9,63.2,30.03,East,98,0.0,3.0,74,0.00,,,0.00,Wunderground v.1.15,2013-10-09 12:04:00,
2013-10-09 07:10:00,71.9,63.2,30.03,East,86,0.0,3.0,74,0.00,,,0.00,Wunderground v.1.15,2013-10-09 12:10:00,
2013-10-09 07:15:00,72.1,63.0,30.03,East,95,1.0,3.0,73,0.00,,,0.00,Wunderground v.1.15,2013-10-09 12:15:00,
2013-10-09 07:21:00,72.2,63.4,30.03,ENE,72,1.0,3.0,74,0.00,,,0.00,Wunderground v.1.15,2013-10-09 12:21:00,
2013-10-09 07:27:00,72.1,63.4,30.03,ENE,61,0.0,3.0,74,0.00,,,0.00,Wunderground v.1.15,2013-10-09 12:27:00,
2013-10-09 07:33:00,72.2,63.4,30.03,ENE,61,0.0,3.0,74,0.00,,,0.00,Wunderground v.1.15,2013-10-09 12:33:00,
2013-10-09 07:38:00,72.4,63.6,30.03,ENE,60,0.0,3.0,74,0.00,,,0.00,Wunderground v.1.15,2013-10-09 12:38:00,
2013-10-09 07:44:00,72.8,64.0,30.03,East,82,0.0,3.0,74,0.00,,,0.00,Wunderground v.1.15,2013-10-09 12:44:00,
2013-10-09 07:50:00,73.2,64.0,30.03,ENE,74,0.0,3.0,73,0.00,,,0.00,Wunderground v.1.15,2013-10-09 12:50:00,
2013-10-09 07:56:00,73.4,63.8,30.03,East,91,0.0,3.0,72,0.00,,,0.00,Wunderground v.1.15,2013-10-09 12:56:00,
2013-10-09 08:02:00,73.7,64.1,30.04,ENE,70,1.0,3.0,72,0.00,,,0.00,Wunderground v.1.15,2013-10-09 13:02:00,
2013-10-09 08:08:00,74.0,64.0,30.04,East,85,0.0,3.0,71,0.00,,,0.00,Wunderground v.1.15,2013-10-09 13:08:00,
2013-10-09 08:13:00,74.0,64.0,30.04,East,82,0.0,3.0,71,0.00,,,0.00,Wunderground v.1.15,2013-10-09 13:13:00,
2013-10-09 08:19:00,74.4,64.4,30.04,East,91,0.0,3.0,71,0.00,,,0.00,Wunderground v.1.15,2013-10-09 13:19:00,
2013-10-09 08:25:00,75.1,64.6,30.04,ESE,120,0.0,3.0,70,0.00,,,0.00,Wunderground v.1.15,2013-10-09 13:25:00,
2013-10-09 08:31:00,76.0,65.1,30.05,SE,127,0.0,3.0,69,0.00,,,0.00,Wunderground v.1.15,2013-10-09 13:31:00,
2013-10-09 08:37:00,76.0,65.1,30.05,SE,138,1.0,3.0,69,0.00,,,0.00,Wunderground v.1.15,2013-10-09 13:37:00,
2013-10-09 08:42:00,76.6,65.2,30.05,East,86,1.0,3.0,68,0.00,,,0.00,Wunderground v.1.15,2013-10-09 13:42:00,
2013-10-09 08:48:00,76.6,64.8,30.05,SE,128,1.0,3.0,67,0.00,,,0.00,Wunderground v.1.15,2013-10-09 13:48:00,
2013-10-09 08:54:00,76.8,65.4,30.05,East,91,1.0,3.0,68,0.00,,,0.00,Wunderground v.1.15,2013-10-09 13:54:00,
2013-10-09 09:00:00,76.7,64.5,30.05,ENE,74,0.0,3.0,66,0.00,,,0.00,Wunderground v.1.15,2013-10-09 14:00:00,
2013-10-09 09:05:00,77.0,64.3,30.05,East,101,0.0,3.0,65,0.00,,,0.00,Wunderground v.1.15,2013-10-09 14:05:00,
2013-10-09 09:11:00,77.0,65.2,30.06,ESE,108,0.0,3.0,67,0.00,,,0.00,Wunderground v.1.15,2013-10-09 14:11:00,
2013-10-09 09:17:00,77.1,64.4,30.06,East,84,1.0,3.0,65,0.00,,,0.00,Wunderground v.1.15,2013-10-09 14:17:00,
2013-10-09 09:23:00,76.7,64.5,30.06,ESE,113,2.0,3.0,66,0.00,,,0.00,Wunderground v.1.15,2013-10-09 14:23:00,
2013-10-09 09:29:00,76.6,64.0,30.06,ESE,123,3.0,3.0,65,0.00,,,0.00,Wunderground v.1.15,2013-10-09 14:29:00,
2013-10-09 09:35:00,76.6,64.0,30.06,ESE,117,2.0,3.0,65,0.00,,,0.00,Wunderground v.1.15,2013-10-09 14:35:00,
2013-10-09 09:41:00,76.4,63.8,30.07,East,84,2.0,3.0,65,0.00,,,0.00,Wunderground v.1.15,2013-10-09 14:41:00,
2013-10-09 09:46:00,76.4,64.2,30.07,SE,138,2.0,3.0,66,0.00,,,0.00,Wunderground v.1.15,2013-10-09 14:46:00,
2013-10-09 09:52:00,76.4,64.2,30.07,ESE,112,1.0,3.0,66,0.00,,,0.00,Wunderground v.1.15,2013-10-09 14:52:00,
2013-10-09 09:57:00,76.9,64.2,30.07,East,96,1.0,3.0,65,0.00,,,0.00,Wunderground v.1.15,2013-10-09 14:57:00,
2013-10-09 10:03:00,77.2,65.0,30.08,SE,127,1.0,4.0,66,0.00,,,0.00,Wunderground v.1.15,2013-10-09 15:03:00,
2013-10-09 10:09:00,76.6,64.0,30.08,East,101,3.0,5.0,65,0.00,,,0.00,Wunderground v.1.15,2013-10-09 15:09:00,
2013-10-09 10:15:00,76.1,63.5,30.08,ESE,123,2.0,3.0,65,0.00,,,0.00,Wunderground v.1.15,2013-10-09 15:15:00,
2013-10-09 10:21:00,76.2,66.1,30.08,ENE,57,1.0,3.0,71,0.00,,,0.00,Wunderground v.1.15,2013-10-09 15:21:00,
2013-10-09 10:26:00,76.0,66.3,30.08,NE,45,2.0,4.0,72,0.00,,,0.00,Wunderground v.1.15,2013-10-09 15:26:00,
2013-10-09 10:32:00,76.1,66.4,30.08,ENE,57,3.0,5.0,72,0.00,,,0.00,Wunderground v.1.15,2013-10-09 15:32:00,
2013-10-09 10:38:00,75.9,66.2,30.08,NE,36,3.0,5.0,72,0.00,,,0.00,Wunderground v.1.15,2013-10-09 15:38:00,
2013-10-09 10:44:00,75.6,65.5,30.08,ENE,68,3.0,4.0,71,0.00,,,0.00,Wunderground v.1.15,2013-10-09 15:44:00,
2013-10-09 10:50:00,75.6,65.9,30.08,NNW,333,2.0,3.0,72,0.00,,,0.00,Wunderground v.1.15,2013-10-09 15:50:00,
2013-10-09 10:56:00,76.1,66.0,30.08,ENE,64,2.0,4.0,71,0.00,,,0.00,Wunderground v.1.15,2013-10-09 15:56:00,
2013-10-09 11:02:00,76.5,66.8,30.08,ENE,74,3.0,5.0,72,0.00,,,0.00,Wunderground v.1.15,2013-10-09 16:02:00,
2013-10-09 11:08:00,76.8,66.3,30.08,NNE,25,2.0,5.0,70,0.00,,,0.00,Wunderground v.1.15,2013-10-09 16:08:00,
2013-10-09 11:13:00,77.0,66.0,30.08,ENE,72,2.0,5.0,69,0.00,,,0.00,Wunderground v.1.15,2013-10-09 16:13:00,
2013-10-09 11:19:00,76.4,65.9,30.08,NE,55,3.0,5.0,70,0.00,,,0.00,Wunderground v.1.15,2013-10-09 16:19:00,
2013-10-09 11:25:00,76.1,65.2,30.08,ENE,66,3.0,4.0,69,0.00,,,0.00,Wunderground v.1.15,2013-10-09 16:25:00,
2013-10-09 11:31:00,75.9,65.8,30.08,ENE,73,3.0,4.0,71,0.00,,,0.00,Wunderground v.1.15,2013-10-09 16:31:00,
2013-10-09 11:37:00,76.1,65.2,30.08,ENE,67,3.0,4.0,69,0.00,,,0.00,Wunderground v.1.15,2013-10-09 16:37:00,
2013-10-09 11:43:00,76.5,65.6,30.08,ESE,106,2.0,3.0,69,0.00,,,0.00,Wunderground v.1.15,2013-10-09 16:43:00,
2013-10-09 11:48:00,76.9,65.5,30.08,ENE,68,2.0,3.0,68,0.00,,,0.00,Wunderground v.1.15,2013-10-09 16:48:00,
2013-10-09 11:54:00,76.8,65.4,30.08,ENE,77,2.0,5.0,68,0.00,,,0.00,Wunderground v.1.15,2013-10-09 16:54:00,
2013-10-09 11:59:00,76.6,65.7,30.08,ENE,59,3.0,5.0,69,0.00,,,0.00,Wunderground v.1.15,2013-10-09 16:59:00,
2013-10-09 12:05:00,77.0,64.8,30.08,NE,48,2.0,4.0,66,0.00,,,0.00,Wunderground v.1.15,2013-10-09 17:05:00,
2013-10-09 12:10:00,77.0,64.8,30.08,NE,41,2.0,4.0,66,0.00,,,0.00,Wunderground v.1.15,2013-10-09 17:10:00,
2013-10-09 12:16:00,76.6,65.2,30.08,North,359,2.0,4.0,68,0.00,,,0.00,Wunderground v.1.15,2013-10-09 17:16:00,
2013-10-09 12:21:00,76.7,64.9,30.08,NE,46,1.0,3.0,67,0.00,,,0.00,Wunderground v.1.15,2013-10-09 17:21:00,
2013-10-09 12:27:00,77.0,66.0,30.08,ESE,111,1.0,3.0,69,0.00,,,0.00,Wunderground v.1.15,2013-10-09 17:27:00,
2013-10-09 12:33:00,77.5,66.1,30.08,East,82,1.0,5.0,68,0.00,,,0.00,Wunderground v.1.15,2013-10-09 17:33:00,
2013-10-09 12:39:00,77.5,64.8,30.08,ESE,121,3.0,5.0,65,0.00,,,0.00,Wunderground v.1.15,2013-10-09 17:39:00,
2013-10-09 12:44:00,77.9,65.2,30.08,SSE,150,3.0,4.0,65,0.00,,,0.00,Wunderground v.1.15,2013-10-09 17:44:00,
2013-10-09 12:50:00,78.0,63.9,30.07,ESE,122,2.0,3.0,62,0.00,,,0.00,Wunderground v.1.15,2013-10-09 17:50:00,
2013-10-09 12:56:00,78.2,64.6,30.07,SE,127,1.0,3.0,63,0.00,,,0.00,Wunderground v.1.15,2013-10-09 17:56:00,
2013-10-09 13:02:00,79.0,65.8,30.07,SSE,159,1.0,3.0,64,0.00,,,0.00,Wunderground v.1.15,2013-10-09 18:02:00,
2013-10-09 13:08:00,79.2,65.1,30.07,SE,134,1.0,3.0,62,0.00,,,0.00,Wunderground v.1.15,2013-10-09 18:08:00,
2013-10-09 13:13:00,79.7,65.5,30.07,ESE,121,1.0,3.0,62,0.00,,,0.00,Wunderground v.1.15,2013-10-09 18:13:00,
2013-10-09 13:19:00,79.0,63.9,30.07,ESE,105,1.0,3.0,60,0.00,,,0.00,Wunderground v.1.15,2013-10-09 18:19:00,
2013-10-09 13:25:00,77.9,63.4,30.07,ESE,122,2.0,3.0,61,0.00,,,0.00,Wunderground v.1.15,2013-10-09 18:25:00,
2013-10-09 13:30:00,77.5,64.8,30.06,East,94,2.0,3.0,65,0.00,,,0.00,Wunderground v.1.15,2013-10-09 18:30:00,
2013-10-09 13:36:00,77.3,64.2,30.06,East,101,1.0,3.0,64,0.00,,,0.00,Wunderground v.1.15,2013-10-09 18:36:00,
2013-10-09 13:42:00,77.4,64.3,30.06,SE,139,1.0,3.0,64,0.00,,,0.00,Wunderground v.1.15,2013-10-09 18:42:00,
2013-10-09 13:47:00,77.5,64.4,30.06,East,97,1.0,3.0,64,0.00,,,0.00,Wunderground v.1.15,2013-10-09 18:47:00,
2013-10-09 13:53:00,78.1,64.5,30.05,ESE,117,1.0,3.0,63,0.00,,,0.00,Wunderground v.1.15,2013-10-09 18:53:00,
2013-10-09 13:58:00,77.6,64.5,30.05,ESE,108,1.0,3.0,64,0.00,,,0.00,Wunderground v.1.15,2013-10-09 18:58:00,
2013-10-09 14:04:00,77.4,64.3,30.05,ESE,105,1.0,4.0,64,0.00,,,0.00,Wunderground v.1.15,2013-10-09 19:04:00,
2013-10-09 14:10:00,77.4,64.3,30.04,NE,55,1.0,3.0,64,0.00,,,0.00,Wunderground v.1.15,2013-10-09 19:10:00,
2013-10-09 14:16:00,77.7,64.5,30.04,East,95,2.0,3.0,64,0.00,,,0.00,Wunderground v.1.15,2013-10-09 19:16:00,
2013-10-09 14:22:00,77.7,65.0,30.04,SE,130,2.0,3.0,65,0.00,,,0.00,Wunderground v.1.15,2013-10-09 19:22:00,
2013-10-09 14:27:00,77.5,64.4,30.04,ESE,118,2.0,3.0,64,0.00,,,0.00,Wunderground v.1.15,2013-10-09 19:27:00,
2013-10-09 14:33:00,77.6,64.9,30.04,ESE,121,1.0,3.0,65,0.00,,,0.00,Wunderground v.1.15,2013-10-09 19:33:00,
2013-10-09 14:39:00,78.2,64.6,30.03,SE,124,1.0,3.0,63,0.00,,,0.00,Wunderground v.1.15,2013-10-09 19:39:00,
2013-10-09 14:45:00,78.2,63.6,30.03,ESE,115,2.0,3.0,61,0.00,,,0.00,Wunderground v.1.15,2013-10-09 19:45:00,
2013-10-09 14:50:00,78.3,63.7,30.03,ESE,121,2.0,2.0,61,0.00,,,0.00,Wunderground v.1.15,2013-10-09 19:50:00,
2013-10-09 14:56:00,78.5,63.9,30.03,SE,131,1.0,4.0,61,0.00,,,0.00,Wunderground v.1.15,2013-10-09 19:56:00,
2013-10-09 15:02:00,78.4,64.3,30.03,East,95,2.0,3.0,62,0.00,,,0.00,Wunderground v.1.15,2013-10-09 20:02:00,
2013-10-09 15:08:00,78.3,63.7,30.03,East,82,1.0,3.0,61,0.00,,,0.00,Wunderground v.1.15,2013-10-09 20:08:00,
2013-10-09 15:14:00,78.3,64.2,30.03,ESE,105,1.0,4.0,62,0.00,,,0.00,Wunderground v.1.15,2013-10-09 20:14:00,
2013-10-09 15:20:00,78.2,64.6,30.03,ESE,105,2.0,3.0,63,0.00,,,0.00,Wunderground v.1.15,2013-10-09 20:20:00,
2013-10-09 15:25:00,78.2,64.1,30.02,East,89,3.0,4.0,62,0.00,,,0.00,Wunderground v.1.15,2013-10-09 20:25:00,
2013-10-09 15:31:00,78.2,64.1,30.02,East,89,2.0,3.0,62,0.00,,,0.00,Wunderground v.1.15,2013-10-09 20:31:00,
2013-10-09 15:37:00,78.3,64.2,30.02,ENE,70,2.0,4.0,62,0.00,,,0.00,Wunderground v.1.15,2013-10-09 20:37:00,
2013-10-09 15:43:00,78.2,63.6,30.02,ESE,110,3.0,4.0,61,0.00,,,0.00,Wunderground v.1.15,2013-10-09 20:43:00,
2013-10-09 15:49:00,78.3,64.2,30.02,SE,138,2.0,4.0,62,0.00,,,0.00,Wunderground v.1.15,2013-10-09 20:49:00,
2013-10-09 15:54:00,78.3,63.7,30.02,SE,131,2.0,4.0,61,0.00,,,0.00,Wunderground v.1.15,2013-10-09 20:54:00,
2013-10-09 16:00:00,78.5,64.9,30.02,ESE,115,2.0,5.0,63,0.00,,,0.00,Wunderground v.1.15,2013-10-09 21:00:00,
2013-10-09 16:06:00,78.4,65.2,30.02,ESE,107,2.0,5.0,64,0.00,,,0.00,Wunderground v.1.15,2013-10-09 21:06:00,
2013-10-09 16:11:00,78.4,65.2,30.02,ESE,116,2.0,3.0,64,0.00,,,0.00,Wunderground v.1.15,2013-10-09 21:11:00,
2013-10-09 16:17:00,78.2,64.6,30.02,SE,128,2.0,3.0,63,0.00,,,0.00,Wunderground v.1.15,2013-10-09 21:17:00,
2013-10-09 16:22:00,78.2,65.0,30.02,SE,145,3.0,3.0,64,0.00,,,0.00,Wunderground v.1.15,2013-10-09 21:22:00,
2013-10-09 16:28:00,78.2,65.0,30.02,East,92,2.0,5.0,64,0.00,,,0.00,Wunderground v.1.15,2013-10-09 21:28:00,
2013-10-09 16:34:00,78.1,64.9,30.02,SE,132,2.0,3.0,64,0.00,,,0.00,Wunderground v.1.15,2013-10-09 21:34:00,
2013-10-09 16:39:00,78.1,64.9,30.02,East,82,3.0,3.0,64,0.00,,,0.00,Wunderground v.1.15,2013-10-09 21:39:00,
2013-10-09 16:45:00,78.0,65.7,30.02,ESE,120,3.0,4.0,66,0.00,,,0.00,Wunderground v.1.15,2013-10-09 21:45:00,
2013-10-09 16:51:00,78.1,64.9,30.01,ENE,76,3.0,3.0,64,0.00,,,0.00,Wunderground v.1.15,2013-10-09 21:51:00,
2013-10-09 16:56:00,78.1,64.9,30.01,ENE,78,2.0,4.0,64,0.00,,,0.00,Wunderground v.1.15,2013-10-09 21:56:00,
2013-10-09 17:02:00,78.1,65.4,30.01,ESE,107,2.0,3.0,65,0.00,,,0.00,Wunderground v.1.15,2013-10-09 22:02:00,
2013-10-09 17:08:00,78.1,64.5,30.01,East,98,2.0,3.0,63,0.00,,,0.00,Wunderground v.1.15,2013-10-09 22:08:00,
2013-10-09 17:13:00,78.0,64.8,30.01,ESE,105,2.0,4.0,64,0.00,,,0.00,Wunderground v.1.15,2013-10-09 22:13:00,
2013-10-09 17:19:00,77.9,64.7,30.01,East,86,2.0,4.0,64,0.00,,,0.00,Wunderground v.1.15,2013-10-09 22:19:00,
2013-10-09 17:25:00,77.9,64.3,30.01,SE,124,2.0,3.0,63,0.00,,,0.00,Wunderground v.1.15,2013-10-09 22:25:00,
2013-10-09 17:31:00,77.8,64.6,30.01,ESE,104,2.0,3.0,64,0.00,,,0.00,Wunderground v.1.15,2013-10-09 22:31:00,
2013-10-09 17:37:00,77.6,64.5,30.01,ESE,109,3.0,4.0,64,0.00,,,0.00,Wunderground v.1.15,2013-10-09 22:37:00,
2013-10-09 17:43:00,77.6,64.9,30.01,East,87,3.0,5.0,65,0.00,,,0.00,Wunderground v.1.15,2013-10-09 22:43:00,
2013-10-09 17:48:00,77.5,64.8,30.00,SE,138,3.0,5.0,65,0.00,,,0.00,Wunderground v.1.15,2013-10-09 22:48:00,
2013-10-09 17:54:00,77.3,64.2,30.01,SE,124,4.0,7.0,64,0.00,,,0.00,Wunderground v.1.15,2013-10-09 22:54:00,
2013-10-09 18:00:00,77.2,65.0,30.01,ENE,70,4.0,4.0,66,0.00,,,0.00,Wunderground v.1.15,2013-10-09 23:00:00,
2013-10-09 18:05:00,77.0,65.2,30.01,ESE,113,4.0,7.0,67,0.00,,,0.00,Wunderground v.1.15,2013-10-09 23:05:00,
2013-10-09 18:11:00,76.7,64.9,30.01,SSE,159,5.0,8.0,67,0.00,,,0.00,Wunderground v.1.15,2013-10-09 23:11:00,
2013-10-09 18:16:00,76.5,65.1,30.01,East,93,4.0,8.0,68,0.00,,,0.00,Wunderground v.1.15,2013-10-09 23:16:00,
2013-10-09 18:22:00,76.4,64.6,30.01,East,86,3.0,5.0,67,0.00,,,0.00,Wunderground v.1.15,2013-10-09 23:22:00,
2013-10-09 18:27:00,76.4,65.5,30.01,SE,129,3.0,8.0,69,0.00,,,0.00,Wunderground v.1.15,2013-10-09 23:27:00,
2013-10-09 18:33:00,76.2,64.9,30.01,East,81,4.0,4.0,68,0.00,,,0.00,Wunderground v.1.15,2013-10-09 23:33:00,
2013-10-09 18:39:00,76.1,64.8,30.01,East,79,4.0,4.0,68,0.00,,,0.00,Wunderground v.1.15,2013-10-09 23:39:00,
2013-10-09 18:44:00,75.9,64.2,30.01,East,85,4.0,8.0,67,0.00,,,0.00,Wunderground v.1.15,2013-10-09 23:44:00,
2013-10-09 18:50:00,75.8,64.1,30.01,East,91,5.0,9.0,67,0.00,,,0.00,Wunderground v.1.15,2013-10-09 23:50:00,
2013-10-09 18:56:00,75.8,64.5,30.01,ENE,77,5.0,9.0,68,0.00,,,0.00,Wunderground v.1.15,2013-10-09 23:56:00,
2013-10-09 19:02:00,75.7,65.2,30.01,ESE,113,4.0,4.0,70,0.00,,,0.00,Wunderground v.1.15,2013-10-10 00:02:00,
2013-10-09 19:07:00,75.6,64.7,30.01,SE,139,4.0,8.0,69,0.00,,,0.00,Wunderground v.1.15,2013-10-10 00:07:00,
2013-10-09 19:13:00,75.6,65.1,30.01,East,98,4.0,5.0,70,0.00,,,0.00,Wunderground v.1.15,2013-10-10 00:13:00,
2013-10-09 19:19:00,75.5,64.6,30.01,ENE,76,3.0,6.0,69,0.00,,,0.00,Wunderground v.1.15,2013-10-10 00:19:00,
2013-10-09 19:25:00,75.5,64.6,30.01,ESE,106,3.0,4.0,69,0.00,,,0.00,Wunderground v.1.15,2013-10-10 00:25:00,
2013-10-09 19:31:00,75.5,64.2,30.01,East,91,3.0,5.0,68,0.00,,,0.00,Wunderground v.1.15,2013-10-10 00:31:00,
2013-10-09 19:37:00,75.5,64.2,30.01,SE,127,4.0,7.0,68,0.00,,,0.00,Wunderground v.1.15,2013-10-10 00:37:00,
2013-10-09 19:43:00,75.5,64.6,30.01,ENE,77,4.0,6.0,69,0.00,,,0.00,Wunderground v.1.15,2013-10-10 00:43:00,
2013-10-09 19:48:00,75.4,64.9,30.01,East,92,4.0,6.0,70,0.00,,,0.00,Wunderground v.1.15,2013-10-10 00:48:00,
2013-10-09 19:54:00,75.4,64.9,30.01,ESE,105,3.0,5.0,70,0.00,,,0.00,Wunderground v.1.15,2013-10-10 00:54:00,
2013-10-09 20:00:00,75.4,64.5,30.01,East,97,3.0,3.0,69,0.00,,,0.00,Wunderground v.1.15,2013-10-10 01:00:00,
2013-10-09 20:06:00,75.3,65.2,30.01,East,99,3.0,4.0,71,0.00,,,0.00,Wunderground v.1.15,2013-10-10 01:06:00,
2013-10-09 20:12:00,75.2,65.1,30.01,ESE,105,4.0,4.0,71,0.00,,,0.00,Wunderground v.1.15,2013-10-10 01:12:00,
2013-10-09 20:18:00,75.2,65.1,30.01,ESE,115,4.0,5.0,71,0.00,,,0.00,Wunderground v.1.15,2013-10-10 01:18:00,
2013-10-09 20:24:00,75.2,65.6,30.01,ESE,115,3.0,7.0,72,0.00,,,0.00,Wunderground v.1.15,2013-10-10 01:24:00,
2013-10-09 20:30:00,75.1,65.5,30.02,East,98,3.0,3.0,72,0.00,,,0.00,Wunderground v.1.15,2013-10-10 01:30:00,
2013-10-09 20:35:00,75.1,65.1,30.02,East,86,3.0,6.0,71,0.00,,,0.00,Wunderground v.1.15,2013-10-10 01:35:00,
2013-10-09 20:41:00,75.2,65.6,30.02,ESE,105,4.0,5.0,72,0.00,,,0.00,Wunderground v.1.15,2013-10-10 01:41:00,
2013-10-09 20:47:00,75.1,65.5,30.02,ESE,106,4.0,7.0,72,0.00,,,0.00,Wunderground v.1.15,2013-10-10 01:47:00,
2013-10-09 20:53:00,75.1,65.9,30.02,East,85,3.0,5.0,73,0.00,,,0.00,Wunderground v.1.15,2013-10-10 01:53:00,
2013-10-09 20:59:00,75.1,65.9,30.02,East,88,2.0,5.0,73,0.00,,,0.00,Wunderground v.1.15,2013-10-10 01:59:00,
2013-10-09 21:05:00,75.1,65.5,30.02,SE,143,4.0,7.0,72,0.00,,,0.00,Wunderground v.1.15,2013-10-10 02:05:00,
2013-10-09 21:11:00,75.2,65.9,30.02,NE,51,4.0,5.0,73,0.00,,,0.00,Wunderground v.1.15,2013-10-10 02:11:00,
2013-10-09 21:16:00,75.3,66.4,30.02,ESE,107,4.0,5.0,74,0.00,,,0.00,Wunderground v.1.15,2013-10-10 02:16:00,
2013-10-09 21:22:00,75.1,66.2,30.02,SSE,150,4.0,4.0,74,0.00,,,0.00,Wunderground v.1.15,2013-10-10 02:22:00,
2013-10-09 21:28:00,75.1,65.9,30.03,ENE,60,4.0,6.0,73,0.00,,,0.00,Wunderground v.1.15,2013-10-10 02:28:00,
2013-10-09 21:33:00,75.1,65.9,30.03,ESE,102,4.0,6.0,73,0.00,,,0.00,Wunderground v.1.15,2013-10-10 02:33:00,
2013-10-09 21:39:00,75.0,65.0,30.03,SE,141,5.0,9.0,71,0.00,,,0.00,Wunderground v.1.15,2013-10-10 02:39:00,
2013-10-09 21:45:00,75.1,65.5,30.03,SE,124,5.0,6.0,72,0.00,,,0.00,Wunderground v.1.15,2013-10-10 02:45:00,
2013-10-09 21:51:00,75.0,65.4,30.03,East,99,4.0,7.0,72,0.00,,,0.00,Wunderground v.1.15,2013-10-10 02:51:00,
2013-10-09 21:56:00,75.1,65.5,30.03,ESE,105,4.0,7.0,72,0.00,,,0.00,Wunderground v.1.15,2013-10-10 02:56:00,
2013-10-09 22:02:00,75.1,65.5,30.03,ESE,108,4.0,8.0,72,0.00,,,0.00,Wunderground v.1.15,2013-10-10 03:02:00,
2013-10-09 22:08:00,75.3,65.2,30.03,East,101,5.0,9.0,71,0.00,,,0.00,Wunderground v.1.15,2013-10-10 03:08:00,
2013-10-09 22:14:00,75.2,65.6,30.03,ESE,102,6.0,6.0,72,0.00,,,0.00,Wunderground v.1.15,2013-10-10 03:14:00,
2013-10-09 22:20:00,75.1,65.5,30.04,East,89,4.0,5.0,72,0.00,,,0.00,Wunderground v.1.15,2013-10-10 03:20:00,
2013-10-09 22:26:00,75.0,65.0,30.04,East,101,3.0,6.0,71,0.00,,,0.00,Wunderground v.1.15,2013-10-10 03:26:00,
2013-10-09 22:32:00,75.1,65.5,30.04,SE,139,3.0,5.0,72,0.00,,,0.00,Wunderground v.1.15,2013-10-10 03:32:00,
2013-10-09 22:38:00,75.0,65.8,30.04,ESE,102,3.0,6.0,73,0.00,,,0.00,Wunderground v.1.15,2013-10-10 03:38:00,
2013-10-09 22:44:00,75.1,65.9,30.04,SE,144,4.0,5.0,73,0.00,,,0.00,Wunderground v.1.15,2013-10-10 03:44:00,
2013-10-09 22:49:00,75.0,65.8,30.04,East,89,4.0,7.0,73,0.00,,,0.00,Wunderground v.1.15,2013-10-10 03:49:00,
2013-10-09 22:55:00,75.0,66.1,30.04,East,90,4.0,6.0,74,0.00,,,0.00,Wunderground v.1.15,2013-10-10 03:55:00,
2013-10-09 23:01:00,75.0,66.5,30.04,SE,132,4.0,4.0,75,0.00,,,0.00,Wunderground v.1.15,2013-10-10 04:01:00,
2013-10-09 23:02:00,75.0,66.5,30.04,ESE,107,4.0,4.0,75,0.00,,,0.00,Wunderground v.1.15,2013-10-10 04:02:00,
2013-10-09 23:04:00,74.9,66.4,30.04,ESE,102,4.0,5.0,75,0.00,,,0.00,Wunderground v.1.15,2013-10-10 04:04:00,
2013-10-09 23:05:00,74.9,66.1,30.04,ESE,105,4.0,5.0,74,0.00,,,0.00,Wunderground v.1.15,2013-10-10 04:05:00,
2013-10-09 23:08:00,74.8,66.0,30.04,East,95,4.0,5.0,74,0.00,,,0.00,Wunderground v.1.15,2013-10-10 04:08:00,
2013-10-09 23:09:00,74.8,66.3,30.04,East,87,4.0,5.0,75,0.00,,,0.00,Wunderground v.1.15,2013-10-10 04:09:00,
2013-10-09 23:15:00,74.8,66.0,30.04,East,98,5.0,7.0,74,0.00,,,0.00,Wunderground v.1.15,2013-10-10 04:15:00,
2013-10-09 23:21:00,74.8,66.0,30.04,SE,124,5.0,5.0,74,0.00,,,0.00,Wunderground v.1.15,2013-10-10 04:21:00,
2013-10-09 23:27:00,74.9,65.7,30.04,ESE,112,6.0,7.0,73,0.00,,,0.00,Wunderground v.1.15,2013-10-10 04:27:00,
2013-10-09 23:33:00,74.8,66.0,30.03,ESE,105,6.0,7.0,74,0.00,,,0.00,Wunderground v.1.15,2013-10-10 04:33:00,
2013-10-09 23:39:00,74.9,66.1,30.03,ESE,102,5.0,7.0,74,0.00,,,0.00,Wunderground v.1.15,2013-10-10 04:39:00,
2013-10-09 23:45:00,74.9,66.1,30.04,SSE,149,6.0,9.0,74,0.00,,,0.00,Wunderground v.1.15,2013-10-10 04:45:00,
2013-10-09 23:51:00,75.1,67.0,30.03,East,97,6.0,6.0,76,0.00,,,0.00,Wunderground v.1.15,2013-10-10 04:51:00,
2013-10-09 23:57:00,74.9,66.1,30.03,ESE,121,6.0,7.0,74,0.00,,,0.00,Wunderground v.1.15,2013-10-10 04:57:00,